De Queen, AR

3:51 PM CDT on August 18, 2017 (GMT -0500)
Helms Sevier County

Weather History for KDEQ - May, 2013

Change the Weather History Date:

Thursday, May 2, 2013

  Actual Average Record
Temperature  
Mean Temperature 56 °F 66 °F  
Max Temperature 70 °F 78 °F 90 °F (1943)
Min Temperature 42 °F 54 °F 32 °F (1903)
Degree Days  
Heating Degree Days 9 2  
Month to date heating degree days 9 4  
Since 1 July heating degree days 2990 3025  
Cooling Degree Days 0 3  
Month to date cooling degree days 3 6  
Year to date cooling degree days 63 53  
Growing Degree Days 6 (Base 50)    
Moisture  
Dew Point 51 °F    
Average Humidity 79    
Maximum Humidity 97    
Minimum Humidity 61    
Precipitation  
Precipitation 0.18 in 0.23 in 3.72 in (1984)
Month to date precipitation 0.18 0.47  
Year to date precipitation 7.46 16.04  
Snow  
Snow 0.00 in - - ()
Month to date snowfall 0.0  
Since 1 July snowfall 4.5  
Snow Depth 0.00 in    
Sea Level Pressure  
Sea Level Pressure 30.09 in    
Wind  
Wind Speed 7 mph (NNW)    
Max Wind Speed 17 mph    
Max Gust Speed 25 mph    
Visibility 7 miles    
Events Rain    
T = Trace of Precipitation, MM = Missing Value Source: NWS Daily Summary

Daily Weather History Graph

Daily Weather History Graph

Search for Another Location

Airport or City:

Trip Planner

Search our weather history database for the weather conditions in past years. The results will help you decide how hot, cold, wet, or windy it might be!

Date:

Astronomy

May. 02, 2013 Rise Set
Actual Time 6:27 AM CDT 8:02 PM CDT
Civil Twilight 6:00 AM CDT 8:29 PM CDT
Nautical Twilight 5:28 AM CDT 9:01 PM CDT
Astronomical Twilight 4:54 AM CDT 9:35 PM CDT
Moon 1:54 AM CDT (5/2) 1:11 PM CDT (5/2)
Length of Visible Light 14h 29m
Length of Day
13h 35m
Waning Gibbous, 47% of the Moon is Illuminated
May 2
Waning Gibbous
May 9
New
May 17
First Quarter
May 24
Full
May 31
Last Quarter

Hourly Weather History & Observations

Time (CDT) Temp. Windchill Dew Point Humidity Pressure Visibility Wind Dir Wind Speed Gust Speed Precip Events Conditions
12:10 AM 64.0 °F - 60.1 °F 87% 29.99 in 10.0 mi Calm Calm - N/A   Mostly Cloudy
12:53 AM 63.0 °F - 60.1 °F 90% 29.99 in 10.0 mi NNE 3.5 mph - N/A   Scattered Clouds
1:53 AM 61.0 °F - 59.0 °F 93% 29.99 in 9.0 mi Calm Calm - N/A   Scattered Clouds
2:39 AM 61.0 °F - 59.0 °F 93% 30.01 in 9.0 mi Calm Calm - N/A   Overcast
2:53 AM 61.0 °F - 59.0 °F 93% 30.00 in 9.0 mi Calm Calm - N/A   Mostly Cloudy
3:53 AM 64.0 °F - 60.1 °F 87% 30.00 in 10.0 mi East 3.5 mph - N/A   Overcast
4:53 AM 64.0 °F - 60.1 °F 87% 30.00 in 10.0 mi ENE 5.8 mph - N/A   Overcast
5:53 AM 64.0 °F - 60.1 °F 87% 30.01 in 9.0 mi ENE 5.8 mph - N/A   Overcast
6:53 AM 64.9 °F - 60.1 °F 84% 30.03 in 9.0 mi NE 5.8 mph - N/A   Overcast
7:53 AM 66.0 °F - 61.0 °F 84% 30.04 in 9.0 mi Calm Calm - N/A   Overcast
8:53 AM 66.9 °F - 61.0 °F 81% 30.06 in 9.0 mi NNE 3.5 mph - N/A   Overcast
9:53 AM 63.0 °F - 57.9 °F 84% 30.08 in 6.0 mi North 6.9 mph - N/A   Haze
10:05 AM 61.0 °F - 57.0 °F 87% 30.09 in 2.5 mi NNW 5.8 mph - 0.00 in Rain Light Rain
10:18 AM 61.0 °F - 55.9 °F 83% 30.09 in 5.0 mi Variable 3.5 mph - 0.00 in Rain Light Rain
10:53 AM 63.0 °F - 55.9 °F 78% 30.09 in 10.0 mi NW 4.6 mph - 0.00 in   Overcast
11:53 AM 66.9 °F - 57.0 °F 70% 30.10 in 9.0 mi NNW 6.9 mph - N/A   Overcast
12:53 PM 68.0 °F - 55.9 °F 65% 30.08 in 9.0 mi NNW 9.2 mph - N/A   Overcast
1:53 PM 69.1 °F - 55.0 °F 61% 30.07 in 10.0 mi North 8.1 mph 16.1 mph N/A   Overcast
2:53 PM 66.9 °F - 53.1 °F 61% 30.08 in 10.0 mi NW 11.5 mph 17.3 mph N/A   Overcast
3:53 PM 62.1 °F - 50.0 °F 65% 30.08 in 10.0 mi NNW 11.5 mph 17.3 mph N/A   Overcast
4:53 PM 59.0 °F - 48.0 °F 67% 30.08 in 10.0 mi NW 13.8 mph - N/A   Overcast
5:12 PM 57.9 °F - 48.0 °F 70% 30.10 in 10.0 mi NW 13.8 mph - N/A   Overcast
5:53 PM 55.0 °F - 46.0 °F 72% 30.11 in 10.0 mi NW 13.8 mph 21.9 mph N/A   Overcast
6:53 PM 51.1 °F - 43.0 °F 74% 30.13 in 10.0 mi NNW 13.8 mph 24.2 mph N/A   Overcast
7:53 PM 46.9 °F - 42.1 °F 83% 30.15 in 4.0 mi NW 12.7 mph 20.7 mph 0.00 in Rain Light Rain
8:53 PM 46.0 °F 41.9 °F 42.1 °F 86% 30.15 in 8.0 mi NW 8.1 mph - 0.00 in Rain Light Rain
9:34 PM 46.0 °F 41.9 °F 41.0 °F 83% 30.16 in 9.0 mi NW 8.1 mph - 0.00 in Rain Light Rain
9:53 PM 46.0 °F 41.4 °F 41.0 °F 83% 30.16 in 5.0 mi NNW 9.2 mph 16.1 mph 0.00 in Rain Light Rain
10:12 PM 45.0 °F 43.5 °F 41.0 °F 86% 30.17 in 2.5 mi Variable 3.5 mph - 0.01 in Rain Light Rain
10:44 PM 44.1 °F 41.5 °F 42.1 °F 93% 30.17 in 4.0 mi NW 4.6 mph - 0.04 in Rain Light Rain
10:53 PM 44.1 °F 42.5 °F 42.1 °F 93% 30.16 in 5.0 mi WNW 3.5 mph - 0.04 in Rain Light Rain
11:16 PM 43.0 °F 38.2 °F 41.0 °F 93% 30.16 in 1.8 mi NW 8.1 mph - 0.03 in Rain Rain
11:34 PM 43.0 °F 40.3 °F 41.0 °F 93% 30.16 in 2.0 mi NW 4.6 mph - 0.08 in Rain Rain
11:44 PM 43.0 °F 38.2 °F 39.9 °F 89% 30.16 in 1.8 mi NNW 8.1 mph - 0.11 in Rain Rain
11:51 PM 42.8 °F 38.6 °F 39.2 °F 87% 30.16 in 3.0 mi NW 6.9 mph - 0.11 in Rain Light Rain
11:52 PM 43.0 °F 39.5 °F 39.9 °F 89% 30.16 in 3.0 mi NNW 5.8 mph - 0.11 in Rain Light Rain